Location: *
(29.1167°S, 130.0000°E)
Time: 11:34:00
(UTC+00:00)

APEX - Pass Details

Date: 21 July 2019
Orbit: 331 x 1134 km, 69.9° (Epoch: 21 August)

Event Time Altitude Azimuth Distance (km) Brightness Sun altitude
Rises 09:30:09 0° 185° (S) 2,513 6.6 -10.6°
Reaches altitude 10° 09:32:18 10° 172° (S) 1,738 5.6 -11.0°
Maximum altitude 09:35:40 28° 111° (ESE) 1,113 4.3 -11.7°
Drops below altitude 10° 09:39:44 10° 52° (NE) 2,125 6.0 -12.6°
Sets 09:42:37 0° 41° (NE) 3,198 7.0 -13.2°
